Regional Weather Roundup
Issued by NWS

Home | Current Version | Previous Version | Text Only | Print | Product List | Glossary Off
Versions: 1 2 3 4 5 6 7 8 9 10 11 12 13 14 15 16 17 18 19 20 21 22 23 24 25 26 27 28 29 30 31 32 33 34 35 36 37 38 39 40 41 42 43 44 45 46 47 48 49 50

000
ASUS43 KOAX 030502
RWRNE

WEATHER ROUNDUP FOR NEBRASKA
NATIONAL WEATHER SERVICE OMAHA NE
1200 AM CDT SUN MAY 03 2015

NOTES: SATELLITE DATA IS BEING USED TO AUGMENT CLOUD COVER ABOVE
       12000 FEET.
       "FAIR" INDICATES FEW OR NO CLOUDS BELOW 12,000 FEET WITH NO
       SIGNIFICANT WEATHER AND/OR OBSTRUCTIONS TO VISIBILITY.

  * THESE STATIONS DO NOT REPORT WEATHER SUCH AS RAIN...SNOW OR FOG.

NEZ001>004-019>022-054>056-030600-
NEBRASKA PANHANDLE

CITY           SKY/WX    TMP DP  RH WIND       PRES   REMARKS
SCOTTSBLUFF    MOCLDY    59  42  53 SW7       29.81F
ALLIANCE       CLOUDY    62  41  46 SW10      29.80F
CHADRON        MOCLDY    56  40  55 N6        29.76F
KIMBALL        CLOUDY    53  44  71 SW8       29.89S
SIDNEY         CLOUDY    52  45  77 W12       29.88S
$$

NEZ057>060-069>072-079>082-030600-
SOUTHWEST NEBRASKA

CITY           SKY/WX    TMP DP  RH WIND       PRES   REMARKS
NORTH PLATTE   MOCLDY    61  44  53 W6        29.78R
IMPERIAL       CLOUDY    68  38  33 W8        29.80F
MCCOOK         MOCLDY    69  45  41 W12       29.79R
$$

NEZ005>010-023>029-035>040-094-030600-
NORTH CENTRAL NEBRASKA

CITY           SKY/WX    TMP DP  RH WIND       PRES   REMARKS
VALENTINE      CLEAR     58  42  55 W3        29.70F
AINSWORTH      CLEAR     59  49  68 SE5       29.71S
BROKEN BOW     PTCLDY    54  43  66 CALM      29.72F
ORD            CLEAR     62  46  55 W3        29.70F
$$

NEZ041-046>049-061>064-073>077-083>087-030600-
SOUTH CENTRAL NEBRASKA

CITY           SKY/WX    TMP DP  RH WIND       PRES   REMARKS
GRAND ISLAND   CLEAR     72  52  49 S20G29    29.72S
AURORA         PTCLDY    69  54  57 S14G23    29.73R
HASTINGS       PTCLDY    70  52  52 S10       29.74S
KEARNEY *      MOCLDY    70  48  46 E14       29.74S
$$

NEZ011>018-030>034-042>045-030600-
NORTHEAST NEBRASKA

CITY           SKY/WX    TMP DP  RH WIND       PRES   REMARKS
NORFOLK        MOCLDY    68  51  54 S18       29.70S
ALBION         PTCLDY    62  53  72 SE9       29.72S
BLAIR          TSTM      65  54  67 W16       29.86R
COLUMBUS *     CLOUDY    59  52  77 SE13      29.77F
FREMONT        TSTM      64  56  73 E12G21    29.85R
TEKAMAH        CLOUDY    70  51  51 SW23      29.74F
$$

NEZ050>053-065>068-078-088>093-030600-
SOUTHEAST NEBRASKA

CITY           SKY/WX    TMP DP  RH WIND       PRES   REMARKS
LINCOLN        CLOUDY    71  52  50 N16G24    29.83R
OMAHA EPPLEY   TSTM      65  59  81 SW10      29.85R
BEATRICE       CLOUDY    69  52  55 S13       29.78S
FALLS CITY     CLOUDY    63  53  70 SE8       29.82F
NEBRASKA CITY  CLOUDY    64  51  61 S12       29.81S
PLATTSMOUTH    CLOUDY    65  53  64 SE13      29.81S
$$

NEZ044-045-051>053-067-030600-
OMAHA AREA

CITY           SKY/WX    TMP DP  RH WIND       PRES   REMARKS
OMAHA EPPLEY   TSTM      65  59  81 SW10      29.85R
BLAIR          TSTM      65  54  67 W16       29.86R
FREMONT        TSTM      64  56  73 E12G21    29.85R
OFFUTT AFB     TSTM      66  56  71 W12       29.83R
PLATTSMOUTH    CLOUDY    65  53  64 SE13      29.81S
WAHOO          HVY RAIN  61  54  77 E8        29.86R
$$


USA.gov is the U.S. government's official web portal to all federal, state and local government web resources and services.